Temperature
9 9 9 8 8 8 8 8 8 8 8 8 8 8 7 7 7 6 6 6 5 5 4 4 3 3 3 2 2 2 1 1 1 0 -0 -1 -2 -2
9 9 8 8 8 8 8 8 8 8 7 7 7 7 7 7 6 6 6 5 5 4 4 3 3 3 2 2 1 1 1 0 -0 -1 -1 -2 -2 -2
9 9 9 8 8 8 8 8 8 7 7 7 7 7 7 6 6 5 5 5 4 4 3 3 2 2 2 1 1 0 -0 -1 -1 -1 -2 -3 -3 -3
9 9 9 8 8 8 8 8 8 7 7 7 7 6 6 6 5 5 4 4 4 3 3 2 2 1 1 1 0 -0 -1 -1 -2 -2 -3 -3 -3 -4
9 9 9 8 8 8 8 8 8 7 7 6 6 6 5 5 5 4 4 4 3 3 2 2 1 1 0 -0 -1 -1 -2 -2 -3 -3 -4 -4 -4 -4
9 9 9 8 8 8 8 8 7 7 7 6 6 5 5 5 4 4 4 3 3 2 2 1 0 0 -0 -1 -2 -2 -2 -3 -3 -4 -4 -4 -5 -5
9 8 8 8 8 8 8 7 7 7 6 6 5 5 4 4 4 3 3 2 2 2 1 1 -0 -0 -1 -1 -2 -3 -3 -4 -4 -5 -5 -5 -5 -5
8 8 8 8 8 8 7 7 7 6 6 5 5 4 4 3 3 2 2 1 1 1 0 -0 -1 -1 -1 -2 -3 -3 -4 -4 -5 -5 -5 -5 -6 -6
8 8 8 8 8 7 7 7 6 6 5 5 4 4 3 3 2 2 1 1 0 0 -1 -1 -1 -1 -2 -3 -3 -4 -4 -5 -5 -5 -6 -6 -6 -6
8 8 8 8 7 7 7 6 6 5 5 4 4 3 3 2 1 1 0 0 -0 -0 -1 -2 -2 -2 -2 -3 -3 -4 -5 -5 -5 -6 -6 -6 -6 -6
8 8 8 7 7 7 6 6 5 5 4 4 3 3 2 1 1 0 0 -1 -1 -1 -2 -3 -3 -3 -3 -3 -4 -4 -5 -5 -6 -6 -6 -6 -7 -7
8 7 7 7 7 6 6 5 5 5 4 3 3 2 2 1 1 -0 -1 -1 -2 -3 -3 -4 -4 -5 -5 -4 -4 -5 -5 -6 -6 -6 -6 -7 -7 -7
7 7 7 6 6 6 5 5 5 4 3 3 2 2 1 1 0 -1 -1 -2 -3 -3 -4 -5 -5 -5 -6 -6 -5 -5 -6 -6 -6 -6 -7 -7 -7 -7
7 7 6 6 6 5 5 4 4 3 3 2 1 1 0 -0 -1 -2 -2 -3 -3 -4 -4 -5 -6 -6 -7 -7 -6 -6 -6 -6 -7 -7 -7 -7 -7 -7
7 6 6 5 5 5 4 4 3 2 2 1 1 0 -0 -1 -2 -2 -3 -3 -4 -4 -5 -6 -6 -6 -7 -7 -7 -7 -7 -7 -7 -7 -7 -7 -7 -7
6 6 5 5 4 4 3 3 2 2 1 1 0 -0 -1 -2 -2 -3 -4 -4 -4 -5 -5 -6 -6 -7 -7 -7 -7 -7 -7 -8 -8 -8 -7 -7 -7 -7
6 5 5 4 4 3 2 2 1 1 0 -0 -1 -1 -2 -2 -3 -4 -4 -5 -5 -6 -6 -6 -6 -7 -7 -7 -7 -7 -8 -8 -8 -8 -8 -7 -6 -7
5 5 4 4 3 3 2 1 1 0 -0 -1 -1 -2 -3 -3 -4 -4 -5 -6 -6 -6 -7 -7 -7 -7 -6 -6 -7 -8 -8 -8 -8 -8 -8 -8 -7 -6
4 4 4 3 3 2 1 1 1 -0 -1 -1 -2 -3 -3 -4 -5 -5 -6 -6 -7 -7 -7 -7 -8 -8 -8 -8 -7 -8 -8 -8 -8 -8 -8 -8 -8 -7
3 3 3 2 2 1 1 0 -0 -1 -1 -2 -3 -3 -4 -5 -5 -6 -6 -7 -7 -7 -7 -8 -8 -8 -9 -9 -9 -7 -8 -9 -9 -8 -8 -7 -7 -7
3 2 2 2 1 1 0 -0 -1 -1 -2 -3 -3 -4 -5 -5 -6 -6 -7 -7 -7 -8 -8 -8 -8 -8 -9 -9 -9 -8 -8 -8 -9 -9 -8 -8 -8 -7
2 2 1 1 1 0 -0 -1 -1 -2 -3 -3 -4 -4 -5 -5 -6 -6 -7 -7 -8 -8 -8 -8 -8 -8 -8 -9 -9 -9 -8 -7 -7 -8 -8 -8 -9 -8
2 1 1 0 0 -0 -1 -1 -2 -3 -3 -4 -4 -5 -5 -6 -6 -7 -7 -8 -8 -8 -8 -8 -8 -8 -9 -9 -9 -9 -8 -8 -7 -7 -7 -7 -7 -8
Wind_Speed
9 9 7 6 5 5 5 5 5 4 5 5 4 4 8 9 9 10 10 11 13 13 14 14 15 16 17 18 19 20 20 20 21 22 22 23 24 25
8 9 8 6 5 5 5 5 5 5 4 4 4 3 5 6 9 9 10 11 13 13 14 15 15 16 17 18 19 20 20 20 21 22 23 23 24 25
10 11 10 8 6 6 5 5 5 4 5 4 2 2 3 3 5 8 9 10 10 13 14 15 16 17 17 18 19 20 20 20 21 22 23 23 24 25
12 11 11 8 8 6 6 6 6 5 5 5 3 2 3 4 4 4 6 8 9 12 14 15 16 17 18 18 19 19 19 20 21 22 23 23 24 25
12 12 11 10 9 7 7 7 6 5 4 4 3 2 2 2 2 3 4 5 8 11 13 14 15 16 17 18 19 19 19 20 21 21 23 23 24 24
10 10 11 11 11 9 8 7 6 5 4 3 3 2 2 1 1 3 4 3 4 7 10 11 13 15 16 18 19 19 19 19 20 22 23 23 23 24
9 9 9 11 11 10 8 7 7 6 4 4 3 2 2 2 3 2 3 3 4 3 3 5 7 8 12 15 16 17 18 19 20 22 22 23 23 24
10 9 9 10 11 12 12 12 11 8 7 5 4 4 5 4 3 2 2 2 4 2 2 5 4 5 7 11 15 18 19 20 21 22 22 22 23 24
10 9 7 7 9 7 9 10 10 10 9 7 6 6 4 4 3 2 2 2 4 3 2 4 3 4 7 12 17 18 19 20 21 22 22 22 23 23
9 9 9 8 8 8 7 6 6 6 6 5 5 5 3 3 3 3 2 2 3 3 1 4 4 4 6 10 15 16 18 20 21 22 22 23 23 23
7 7 8 8 10 11 8 7 5 3 4 5 4 3 3 3 2 1 1 1 4 3 1 2 3 5 5 4 9 15 19 20 21 22 23 23 23 22
6 7 9 9 11 12 9 8 7 5 4 3 2 2 2 2 2 2 2 1 2 3 1 2 3 4 5 4 4 10 13 18 22 23 23 23 23 16
7 6 6 11 12 12 10 7 8 6 5 4 3 2 1 1 1 1 2 1 2 3 2 1 2 3 4 6 5 5 7 10 14 16 19 22 23 19
7 6 7 11 12 11 8 7 8 7 4 4 3 2 2 2 1 1 1 1 1 3 4 2 2 3 4 6 6 6 7 10 9 8 10 19 20 22
7 10 10 11 10 7 8 9 7 5 4 4 3 3 2 2 1 1 1 2 3 4 4 4 3 3 4 6 7 7 7 7 6 6 8 9 9 10
7 9 11 10 7 6 6 5 4 4 4 4 3 1 1 2 1 1 0 1 2 3 4 6 6 4 5 7 8 9 7 6 7 9 9 8 9 11
9 6 5 5 4 3 3 3 3 3 3 2 2 2 2 1 1 0 0 1 2 3 3 3 5 7 7 7 7 8 7 7 8 9 10 11 9 8
9 6 6 5 5 5 5 4 3 3 3 3 3 2 2 2 1 0 1 1 2 3 3 3 4 4 4 4 6 6 5 6 8 9 8 10 11 9
7 6 5 6 5 5 5 4 3 3 3 3 3 3 2 2 1 0 1 2 2 3 3 3 3 3 6 7 6 5 6 9 9 8 8 8 10 12
5 5 5 5 5 5 4 4 4 3 3 3 3 3 2 2 1 1 1 2 2 3 3 3 2 3 4 6 6 7 12 9 8 9 9 8 8 12
5 5 5 5 5 4 4 4 4 4 4 3 3 3 2 2 1 1 2 3 3 2 3 4 4 7 3 3 6 6 7 13 13 9 9 9 8 7
6 5 5 5 5 5 5 4 4 4 4 3 3 2 2 2 1 1 1 1 2 2 3 3 4 3 2 4 7 8 9 10 14 16 13 10 7 6
6 6 5 5 5 5 4 5 5 4 4 3 3 2 2 1 1 1 1 1 1 2 3 3 3 3 3 4 5 7 9 10 8 8 8 15 17 16
Wind_Direction
195 194 195 194 191 190 184 173 175 209 237 231 217 211 198 202 216 221 233 249 260 267 276 284 290 296 300 304 307 308 308 310 311 312 312 313 313 314
191 192 196 192 191 191 190 189 182 185 222 226 210 201 186 200 218 223 237 255 261 268 277 284 288 295 299 302 305 306 308 310 312 312 313 313 314 313
193 195 198 191 190 192 188 189 194 186 219 246 217 180 179 208 222 230 245 255 262 271 280 286 291 297 300 302 305 307 309 310 312 312 313 314 314 313
196 195 198 191 191 188 187 194 201 198 202 228 236 213 211 217 216 230 250 259 263 274 282 288 293 298 301 303 305 307 309 311 312 313 313 314 314 314
196 196 195 188 194 191 191 197 202 202 200 208 230 224 232 229 232 252 259 263 271 278 284 288 293 299 304 306 307 309 310 311 311 312 313 313 314 314
194 194 192 191 195 192 194 197 193 196 201 209 224 226 235 247 211 249 274 269 281 282 283 291 297 303 306 309 310 311 311 312 312 313 314 314 314 314
192 191 190 188 188 188 190 192 189 194 199 207 218 220 225 232 241 236 259 281 287 269 294 297 298 297 300 306 310 312 313 315 315 316 316 316 318 318
190 188 186 185 188 191 194 193 190 192 198 200 211 223 233 229 225 230 244 287 289 290 307 294 290 291 293 301 310 317 318 317 317 317 318 319 319 319
187 185 183 183 183 191 196 194 198 198 195 195 206 219 222 217 201 218 235 250 260 273 317 287 287 288 297 309 315 317 319 320 320 320 320 321 321 320
183 183 181 178 179 177 178 184 193 197 198 198 200 208 201 189 187 198 221 270 296 298 297 280 296 300 307 308 314 322 328 327 326 325 325 324 323 323
173 173 173 177 178 173 175 181 184 199 191 183 180 183 183 181 159 109 48 336 307 299 311 287 302 314 301 293 315 327 328 327 327 327 326 327 326 326
163 167 170 172 175 176 179 178 186 196 169 148 141 152 136 149 168 164 175 263 302 290 320 328 312 335 316 296 308 318 321 324 326 325 326 328 329 328
168 171 175 171 173 177 174 179 187 173 159 150 142 134 120 139 157 144 149 178 261 269 289 331 306 312 290 304 304 302 314 319 319 318 324 328 328 329
168 169 168 166 171 173 173 170 159 146 138 139 148 165 175 185 178 130 106 51 274 262 274 280 270 291 302 304 300 306 315 314 311 309 317 325 326 326
152 154 155 159 160 163 158 152 148 143 144 156 180 196 187 169 133 82 30 3 331 314 299 287 268 279 278 288 297 303 313 311 307 318 317 317 315 318
132 136 138 139 137 137 142 144 145 153 156 170 174 160 133 129 136 123 4 335 319 308 300 297 289 280 286 284 286 294 300 300 314 319 318 313 310 312
134 123 124 131 133 131 132 136 137 139 144 140 142 138 142 143 159 124 41 310 300 305 312 309 306 295 275 276 284 287 294 301 306 315 320 319 313 309
135 140 148 150 156 159 157 152 148 155 155 147 148 153 161 171 179 351 350 306 296 299 304 309 322 325 321 295 264 282 294 302 308 311 314 317 315 315
136 148 155 160 159 159 159 159 161 153 146 148 152 157 159 164 166 204 275 295 292 295 300 307 322 328 326 322 303 294 307 312 312 313 310 309 306 308
144 152 155 156 154 155 156 152 146 143 148 152 152 155 158 166 187 231 261 281 293 300 305 312 315 311 301 299 297 299 306 306 312 314 313 308 294 297
146 145 146 149 151 151 150 148 149 153 155 157 159 160 166 173 201 237 263 295 302 293 301 300 293 309 292 289 300 302 301 313 318 314 312 314 316 313
146 145 145 146 148 149 149 149 151 154 155 159 166 168 171 178 198 229 255 281 290 296 306 308 314 323 320 309 309 310 313 317 324 326 323 322 323 324
145 143 143 146 146 145 147 149 150 154 157 160 162 163 165 179 199 220 249 278 294 309 320 319 322 319 308 304 306 310 315 321 325 329 324 333 336 330
Height
1510 1513 1515 1517 1519 1521 1522 1523 1524 1522 1521 1522 1522 1522 1521 1520 1519 1518 1517 1515 1513 1511 1509 1506 1503 1500 1497 1494 1490 1486 1483 1479 1475 1471 1468 1464 1460 1457
1505 1508 1510 1512 1514 1516 1517 1518 1519 1519 1518 1517 1517 1517 1516 1516 1515 1513 1512 1510 1508 1506 1504 1501 1499 1495 1492 1488 1485 1481 1477 1473 1469 1465 1462 1458 1454 1451
1499 1501 1504 1507 1508 1510 1512 1513 1514 1514 1513 1513 1513 1512 1511 1510 1509 1508 1507 1505 1503 1501 1499 1496 1493 1490 1487 1483 1479 1475 1471 1467 1463 1460 1456 1452 1448 1445
1492 1496 1498 1501 1503 1504 1506 1507 1508 1509 1509 1508 1507 1507 1506 1505 1504 1503 1501 1500 1498 1496 1493 1491 1488 1485 1481 1478 1474 1470 1466 1462 1458 1454 1450 1446 1442 1438
1487 1490 1492 1495 1497 1499 1500 1501 1502 1503 1503 1503 1502 1502 1501 1500 1499 1497 1496 1495 1493 1490 1488 1485 1482 1479 1476 1472 1468 1464 1460 1456 1452 1448 1444 1440 1436 1432
1482 1484 1487 1489 1491 1493 1495 1496 1497 1498 1498 1497 1497 1496 1496 1495 1493 1492 1490 1489 1487 1485 1482 1480 1477 1474 1470 1467 1463 1459 1454 1450 1446 1443 1439 1434 1430 1426
1476 1479 1482 1484 1486 1488 1490 1491 1492 1492 1492 1492 1491 1490 1490 1489 1488 1486 1485 1483 1481 1479 1476 1474 1471 1468 1465 1461 1457 1453 1449 1445 1441 1437 1433 1429 1425 1421
1470 1473 1476 1479 1481 1483 1484 1485 1486 1486 1486 1486 1486 1485 1484 1484 1483 1482 1480 1477 1474 1474 1471 1468 1466 1462 1459 1455 1452 1448 1444 1440 1436 1432 1428 1424 1420 1416
1465 1468 1471 1473 1475 1477 1478 1479 1480 1481 1481 1482 1481 1480 1480 1480 1479 1477 1476 1474 1471 1469 1465 1461 1460 1456 1454 1450 1447 1443 1439 1435 1431 1427 1423 1419 1415 1411
1460 1463 1466 1468 1470 1472 1473 1474 1475 1475 1476 1476 1476 1476 1476 1475 1475 1474 1472 1469 1467 1465 1462 1457 1454 1451 1448 1445 1442 1438 1435 1431 1427 1423 1419 1415 1410 1406
1455 1458 1461 1463 1465 1467 1468 1469 1470 1470 1471 1471 1471 1471 1471 1471 1470 1469 1467 1464 1461 1459 1457 1454 1449 1445 1442 1440 1437 1434 1430 1426 1423 1418 1414 1410 1406 1402
1451 1453 1456 1458 1460 1461 1463 1464 1464 1465 1466 1466 1467 1467 1466 1466 1465 1464 1463 1460 1458 1455 1453 1450 1446 1442 1436 1434 1432 1430 1426 1422 1418 1414 1410 1406 1402 1397
1446 1448 1451 1453 1455 1457 1458 1459 1460 1461 1461 1462 1462 1462 1462 1461 1461 1460 1459 1457 1455 1452 1450 1447 1443 1440 1437 1431 1427 1425 1421 1417 1413 1410 1406 1402 1398 1394
1442 1444 1447 1449 1451 1452 1454 1455 1456 1456 1457 1457 1457 1457 1457 1457 1456 1455 1454 1453 1451 1449 1447 1444 1441 1437 1433 1428 1424 1420 1418 1414 1410 1406 1402 1398 1394 1390
1438 1441 1443 1445 1447 1448 1449 1451 1451 1452 1453 1453 1453 1453 1453 1453 1452 1451 1449 1448 1447 1446 1443 1441 1438 1435 1431 1427 1422 1417 1413 1410 1407 1403 1398 1394 1389 1385
1434 1437 1439 1441 1443 1444 1445 1446 1447 1448 1449 1450 1450 1450 1449 1449 1448 1447 1445 1444 1443 1441 1440 1437 1435 1432 1427 1424 1420 1416 1412 1408 1404 1400 1395 1390 1387 1382
1431 1433 1435 1437 1438 1440 1441 1443 1444 1445 1445 1446 1446 1445 1445 1445 1444 1443 1442 1441 1439 1437 1435 1434 1431 1429 1425 1422 1417 1414 1410 1406 1402 1397 1392 1386 1383 1380
1427 1429 1431 1433 1434 1436 1438 1439 1440 1441 1441 1441 1441 1441 1441 1441 1440 1440 1439 1438 1436 1434 1433 1430 1427 1424 1422 1418 1416 1412 1408 1404 1399 1395 1390 1385 1379 1377
1424 1425 1427 1429 1431 1433 1434 1435 1436 1437 1437 1438 1438 1438 1438 1438 1437 1436 1436 1434 1433 1432 1430 1428 1426 1422 1419 1415 1413 1411 1406 1401 1396 1392 1388 1384 1378 1374
1420 1422 1424 1426 1428 1429 1431 1432 1433 1433 1434 1434 1434 1434 1434 1435 1434 1433 1433 1432 1431 1429 1428 1426 1424 1421 1419 1416 1411 1408 1405 1400 1395 1390 1385 1381 1377 1373
1417 1419 1421 1423 1425 1426 1427 1428 1429 1430 1430 1431 1431 1431 1431 1431 1431 1431 1430 1429 1428 1427 1425 1424 1422 1420 1417 1414 1410 1406 1403 1400 1395 1390 1384 1379 1374 1369
1414 1416 1418 1420 1422 1423 1424 1425 1426 1426 1427 1427 1428 1428 1428 1429 1428 1428 1427 1427 1426 1425 1424 1422 1420 1418 1415 1412 1408 1404 1401 1398 1395 1391 1386 1382 1377 1371
1411 1414 1416 1417 1419 1420 1421 1422 1422 1423 1423 1424 1425 1425 1426 1426 1426 1425 1425 1425 1424 1423 1421 1420 1418 1416 1413 1411 1408 1404 1400 1396 1392 1388 1386 1382 1378 1375